This is the latest recevied weather packets stored in our database for station/object XE2RCS-1. If no packets are shown the sender has not sent any weather packets the latest 10 day(s).
| Time | Temp. | Humidity | Pressure | Rain* | Wind** | Luminosity | Snow |
|---|---|---|---|---|---|---|---|
| 1778174472 | 25° C | 54% | 1016 hPa | 0 mm | - | - | - |
| 1778173872 | 25° C | 55% | 1016 hPa | 0 mm | - | - | - |
| 1778173271 | 25° C | 56% | 1015 hPa | 0 mm | - | - | - |
| 1778172671 | 24.44° C | 57% | 1015 hPa | 0 mm | - | - | - |
| 1778172070 | 23.89° C | 58% | 1015 hPa | 0 mm | - | - | - |
| 1778171469 | 23.89° C | 60% | 1015 hPa | 0 mm | - | - | - |
| 1778170869 | 23.89° C | 62% | 1016 hPa | 0 mm | - | - | - |
| 1778170268 | 22.78° C | 64% | 1017 hPa | 0 mm | - | - | - |
| 1778169668 | 22.78° C | 65% | 1015 hPa | 0 mm | - | - | - |
| 1778169067 | 22.22° C | 72% | 1015 hPa | 0 mm | - | - | - |
| 1778168466 | 22.78° C | 81% | 1015 hPa | 0 mm | - | - | - |
| 1778167865 | 21.11° C | 72% | 1016 hPa | 0 mm | - | - | - |
| 1778167265 | 21.67° C | 75% | 1016 hPa | 0 mm | - | - | - |
| 1778166664 | 21.67° C | 82% | 1015 hPa | 0 mm | - | - | - |
| 1778166064 | 21.67° C | 82% | 1015 hPa | 0 mm | - | - | - |
| 1778164863 | 21.11° C | 83% | 1015 hPa | 0 mm | - | - | - |
| 1778164262 | 21.11° C | 84% | 1015 hPa | 0 mm | - | - | - |
| 1778163661 | 20.56° C | 83% | 1016 hPa | 0 mm | - | - | - |
| 1778163061 | 20.56° C | 81% | 1016 hPa | 0 mm | - | - | - |
| 1778162460 | 20.56° C | 75% | 1015 hPa | 0 mm | - | - | - |
| 1778161860 | 20.56° C | 75% | 1015 hPa | 0 mm | - | - | - |
| 1778161259 | 20° C | 75% | 1015 hPa | 0 mm | - | - | - |
| 1778160658 | 20° C | 77% | 1015 hPa | 0 mm | - | - | - |
| 1778160057 | 20° C | 83% | 1016 hPa | 0 mm | - | - | - |
| 1778159457 | 20° C | 82% | 1016 hPa | 0 mm | - | - | - |
* Rain latest hour (hover to see other rain measurements)
** Current wind speed in m/s (hover to see current wind gust speed)